Powrót do katalogu

STARLINK-35540

AktywnyŁącznośćVLEO
NORAD 66151·PAYLOAD·🇺🇸 United States

Wystrzelony Oct 25, 2025 z Cape Canaveral Space Force Station

Loading…

Następne Przeloty (najbliższe 24 godziny)

TLE

ŚwieżeSource: CelesTrak SupGP

Epoka: Sep 15, 2026, 02:25 UTC

1 66151C 25240F   26258.10118056 -.00015241  00000+0 -45019-3 0  2581
2 66151  53.1578 258.8314 0001308  89.6016  39.1765 15.34405633    19

Śledź STARLINK-35540 w czasie rzeczywistym z AllMySat

Download on the App Store